ATLAS 5 CENTAUR DEB, 44662

Orbit data source: Space-Track

ATLAS 5 CENTAUR DEB, 44662 is space debris in HEO originally from a launch on Wed, 17 Oct 2018 UTC launched from the Air Force Eastern Test Range (AFETR). Debris objects in space refer to the collection of defunct objects orbiting the Earth. Examples of debris include non-operational satellites, rocket bodies, and fragments generated from explosions, collisions, or faulty payload assembly.

Loading next visibility...
Identifier
44662, 2018-079Y
Orbit
HEO
Country
Flag of USUS
Related business
Flag of USUnited Launch Alliance/Lockheed Martin (US)
Manufacturer
ULA Decatur
Mission
Spacecraft
Bus & Motor
Unknown
Mass
Unknown
Launch date (UTC)
2018-10-17 (7 years ago)
Launch vehicle
Unknown
Launch site
Air Force Eastern Test Range (AFETR)
Object type
Payload
Rocket body
Debris
Shape & HBR
Unknown shape, 1.1 m
Radar Cross Section
RCS unknown

Expand to show TLE details & history
Last TLE update: 3 days ago

TLE from 3 days ago
0 ATLAS 5 CENTAUR DEB
1 44662U 18079Y   25295.02416733 -.00000107  00000-0  00000-0 0  9995
2 44662  13.0506  49.1715 4691469 291.0310  26.0554  1.84808449 43152
Epoch: 2025-10-22T00:34Z
TLE epoch observation values (Epoch: 2025-10-22T00:34:48.057Z)
Latitude
-0.00004°
Longitude
9.7145°
Altitude
12,325.938 km
Speed
5.33 km/s
True Right ascension
03h 16m 28s
True Declination
0° 00' 00"
Sunlit
Object was in daylight at epoch
Visualization orbit readout
Latitude
Unknown
Longitude
Unknown
Altitude
Unknown
Speed
Unknown
Apparent Right ascension
Unknown
Apparent Declination
Unknown
Sunlit
N/A
Visualization observer readout
Local Sidereal Time
08:03:42
Azimuth
Unknown
Elevation
Unknown
Doppler factor
Unknown
Orbital elements
Apogee altitude
34,833.391 km
Perigee altitude
8,513 km
Semi-major axis
28,051.332 km
Eccentricity
0.46915
Inclination
13.0506°
RAAN
49.1715°
Arg. of periapsis
291.031°
True anomaly
69.26346°
Mean anomaly
26.0554°
Eccentric anomaly
45.09353°
Mean motion
0.46197 °/min
Orbital period
779.27 mins
BSTAR
0
Loading maneuver chart data...
Computing Atmospheric mass density...

Documentation

Showing up to 5 results
|